SCP
-0 0 0 0 0 0 0 0 0 0 0 0 0 0 0 0 0 0 0 0 0 0 0 0 0 0 0 0 0 0 0 0 0 0 0 0 0 0 0 0 0 0 0 0 0
-0 -0 -0 -0 -0 0 0 0 0 0 0 0 0 0 0 0 0 0 0 0 0 -0 0 0 0 0 0 0 0 0 0 0 0 0 0 0 0 0 0 0 0 0 0 0 0
-0 -0 -0 -0 -0 -0 0 0 0 0 0 0 0 0 0 0 0 0 0 0 0 0 0 0 0 0 0 0 0 0 0 0 0 0 0 0 0 0 0 0 0 0 0 0 0
-0 -0 -0 -0 -0 -0 -0 0 0 0 0 0 0 0 0 0 0 0 0 0 0 0 0 0 0 0 0 0 0 0 0 0 0 0 0 0 -0 0 0 0 0 -0 0 0 0
-0 -0 -0 -0 -0 -0 -0 0 0 0 0 0 0 0 0 0 0 0 0 0 0 0 0 0 0 0 0 0 0 0 0 0 0 0 0 0 0 0 0 0 0 0 0 0 0
-0 -0 -0 -0 -0 -0 -0 0 0 0 0 0 0 0 0 0 0 0 0 0 0 0 0 0 0 0 0 0 0 0 0 0 0 0 0 0 0 0 0 0 0 0 0 0 0
-0 -0 -0 -0 -0 -0 -0 0 0 0 0 0 0 0 0 0 0 0 0 0 0 0 0 0 0 0 0 0 0 0 0 0 0 0 0 0 0 0 0 0 -0 -0 -0 -0 -0
-0 -0 -0 -0 -0 -0 -0 0 0 0 0 0 0 0 0 0 0 0 0 0 0 0 0 0 0 0 0 0 0 0 0 0 0 0 0 0 0 0 0 0 -0 -0 -0 -0 -0
-0 -0 -0 -0 -0 -0 -0 0 0 0 0 0 0 0 0 0 0 0 0 0 0 0 0 0 0 0 0 0 0 0 0 0 0 0 0 0 0 0 0 0 0 0 0 0 0
-0 -0 -0 -0 -0 -0 -0 0 0 0 0 0 0 0 0 0 0 0 0 0 0 0 0 0 0 0 0 0 0 0 0 0 0 0 0 0 0 0 0 0 0 0 0 0 0
0 0 -0 -0 -0 0 0 0 0 0 0 0 0 0 0 0 0 0 0 0 0 0 0 0 0 0 0 0 0 0 0 0 0 0 0 0 0 0 0 0 0 0 0 0 0
0 0 0 0 0 0 0 0 0 0 0 0 0 0 0 0 0 0 0 0 0 0 0 0 0 0 0 0 0 0 0 0 0 0 0 0 0 0 0 0 0 0 0 0 0
0 0 0 0 0 0 0 0 0 0 0 0 0 0 0 0 0 0 0 0 0 0 0 0 0 0 0 0 0 0 0 0 0 0 0 0 0 0 0 0 0 0 0 0 0
0 0 0 0 0 0 0 0 0 0 0 0 0 0 0 0 0 0 0 0 0 0 0 0 0 0 0 0 0 0 0 0 0 0 0 0 0 0 0 0 0 0 0 0 0
0 0 0 0 0 0 0 0 0 0 0 0 0 0 0 0 0 0 0 0 0 0 0 0 0 0 0 0 0 0 0 0 0 0 0 0 0 0 0 0 0 0 0 0 0
0 0 0 0 0 0 0 0 0 0 0 0 0 0 0 0 0 0 0 0 0 0 0 0 0 0 0 0 0 0 0 0 0 0 0 0 0 0 0 0 0 0 0 0 0
0 0 0 0 0 0 0 0 0 0 0 0 0 0 0 0 0 0 0 0 0 0 0 0 0 0 0 0 0 0 0 0 0 0 0 0 0 0 0 0 0 0 0 0 0
0 0 0 0 0 0 0 0 0 0 0 0 0 0 0 0 0 0 0 0 0 0 0 0 0 0 0 0 0 0 0 0 0 0 0 0 0 0 0 0 0 0 0 0 0
-0 0 0 0 0 0 0 0 0 0 0 0 0 0 0 0 0 0 0 0 0 0 0 0 0 0 0 0 0 0 0 0 0 0 0 0 0 0 0 0 0 0 0 0 0
-0 0 0 0 0 0 0 0 0 0 0 0 0 0 0 0 0 0 0 0 0 0 0 0 0 0 0 0 0 0 0 0 0 0 0 0 0 0 0 0 0 0 0 0 0
0 0 0 0 0 0 0 0 0 0 0 0 0 0 0 0 0 0 0 0 0 0 0 0 0 0 0 0 0 0 0 0 0 0 0 0 0 0 0 0 0 0 0 0 0
0 0 0 0 0 0 0 0 0 0 0 0 0 0 0 0 0 0 0 0 0 0 0 0 0 0 0 0 0 0 0 0 0 0 0 0 0 0 0 0 0 0 0 0 0
0 0 0 0 0 0 0 0 0 0 0 0 0 0 0 0 0 0 0 0 0 0 0 0 0 0 0 0 0 0 0 0 0 0 0 0 0 0 0 0 0 0 0 0 0
0 0 0 0 0 0 0 0 0 0 0 0 0 0 0 0 0 0 0 0 0 0 0 0 0 0 0 0 0 0 0 0 0 0 0 0 0 0 0 0 0 0 0 0 0
0 0 0 0 0 0 0 0 0 0 0 0 0 0 0 0 0 0 0 0 0 0 0 0 0 0 0 0 0 0 0 0 0 0 0 0 0 0 0 0 0 0 0 0 0
0 0 0 0 0 0 0 0 0 0 0 0 0 0 0 0 0 0 0 0 0 0 0 0 0 0 0 0 0 0 0 0 0 0 0 0 0 0 0 0 0 0 0 0 0
0 0 0 0 0 0 0 0 0 0 0 0 0 0 0 0 0 0 0 0 0 0 0 0 0 0 0 0 0 0 0 0 0 0 0 0 0 0 0 0 0 0 0 0 0
Wind_Speed_500mb
28 24 19 17 16 16 18 20 20 20 18 17 16 17 18 19 22 31 39 29 16 23 32 30 25 27 29 18 10 8 6 3 8 10 6 1 1 3 2 4 8 11 13 11 7
31 29 25 21 19 19 20 19 20 19 18 17 18 18 17 16 21 36 27 20 26 36 36 40 35 36 16 15 10 7 6 14 7 7 3 4 3 3 4 5 7 15 26 28 23
30 30 29 27 21 20 22 21 21 19 18 19 19 17 14 12 18 12 8 30 26 34 33 34 32 31 11 13 11 9 9 7 7 17 11 4 5 4 5 5 21 22 22 26 29
27 29 31 32 20 15 19 21 21 20 19 19 18 16 13 9 7 4 15 28 35 37 36 34 40 21 10 9 11 4 14 13 9 2 3 4 5 11 21 21 27 28 25 22 24
27 27 29 32 24 12 11 15 17 18 18 18 17 16 12 11 16 12 1 36 40 40 35 39 42 16 11 9 11 7 7 16 28 27 24 23 17 18 34 43 31 35 33 25 23
26 27 28 29 28 14 7 7 13 16 17 17 17 17 15 7 9 5 20 30 39 39 36 33 28 21 12 7 9 8 9 18 20 26 12 9 2 3 8 16 30 33 30 20 18
28 27 26 26 26 16 8 4 6 13 16 16 17 16 17 20 5 11 25 29 31 31 33 31 20 23 14 7 3 3 8 12 4 2 8 12 2 6 29 29 47 50 48 40 31
30 28 25 23 22 17 11 8 8 10 14 15 15 14 13 11 18 17 28 28 26 24 19 28 19 17 5 7 8 5 7 6 3 3 6 11 3 20 38 39 49 50 50 45 42
33 29 27 23 20 18 12 6 4 8 14 15 15 13 9 8 18 25 27 26 26 23 17 25 21 7 7 10 7 9 5 6 12 4 3 5 3 22 42 48 51 52 54 53 46
33 30 26 22 17 15 9 2 5 11 17 15 12 7 13 5 12 28 29 24 21 27 20 12 7 6 6 7 9 10 7 6 7 4 8 5 10 27 46 58 51 53 56 58 60
32 28 25 21 17 12 7 8 9 6 21 12 8 2 7 12 17 29 32 27 28 13 8 3 5 14 16 13 6 11 6 5 5 6 4 11 2 28 36 59 55 55 60 61 61
30 26 23 20 17 13 15 10 9 4 5 22 20 17 7 14 8 31 33 17 12 9 9 9 15 10 11 8 8 4 3 11 10 4 11 9 14 25 40 47 50 51 57 60 70
31 28 22 19 17 17 19 16 11 6 2 4 7 11 21 18 4 30 35 15 7 10 10 11 6 10 12 8 11 8 11 10 16 2 3 8 7 9 25 43 46 50 50 58 62
30 28 22 17 14 20 20 18 11 7 7 5 6 5 10 12 5 18 28 7 4 13 14 9 3 8 7 10 14 6 17 11 8 6 6 4 5 8 20 27 44 49 54 56 62
27 24 18 18 11 24 13 18 12 9 2 3 5 7 12 9 17 5 17 4 12 9 10 7 8 6 5 10 15 12 8 12 8 8 2 4 4 8 11 19 32 43 48 50 52
13 13 6 17 22 21 20 17 14 8 10 4 4 3 8 10 6 8 6 10 6 6 3 10 4 4 8 3 8 9 9 11 7 6 5 14 12 6 8 12 22 34 41 45 51
4 7 3 12 19 24 22 20 7 7 6 6 5 6 11 10 9 9 9 13 6 4 7 9 3 3 1 5 1 6 9 4 3 1 9 2 4 13 16 21 22 27 36 42 48
18 14 7 5 16 24 25 5 7 4 5 4 5 7 9 10 8 8 8 6 11 8 6 4 2 10 15 5 3 7 11 8 9 6 4 4 7 8 22 22 25 28 31 38 46
12 10 19 3 17 24 9 7 3 2 3 4 3 8 4 5 7 11 9 5 10 9 5 2 6 10 5 7 5 4 6 3 1 1 2 9 8 11 13 21 28 32 37 42 45
8 4 25 7 17 22 8 9 5 5 5 3 5 2 6 7 5 9 5 6 6 11 1 3 7 4 11 8 10 7 5 1 3 6 9 3 8 9 10 16 19 28 34 36 41
5 2 18 15 19 11 8 7 8 10 2 8 5 7 6 5 6 6 5 8 10 7 16 4 3 10 6 14 5 11 7 8 1 4 6 5 3 6 7 12 14 21 25 31 40
4 4 14 16 11 7 5 5 6 11 22 12 8 9 6 6 7 6 7 8 14 4 5 3 6 2 7 5 16 9 6 6 4 4 2 3 3 10 12 13 14 16 19 27 36
5 4 17 14 7 5 6 9 13 12 11 10 8 9 7 6 7 5 9 7 20 6 7 4 1 4 1 5 2 12 7 4 3 5 7 5 3 9 17 16 12 16 25 34 41
5 4 21 26 14 11 9 6 7 16 9 13 6 7 7 8 11 7 5 3 10 8 6 2 4 8 10 5 5 6 4 5 7 5 5 7 2 4 10 12 19 25 31 33 38
10 5 5 5 14 11 9 4 6 5 8 16 7 11 6 6 5 6 5 8 9 14 9 7 6 4 5 2 9 4 4 2 7 6 9 6 3 8 10 11 22 22 30 29 41
10 8 16 9 6 8 11 6 7 6 7 5 10 4 8 7 5 5 4 2 2 11 7 8 3 4 5 14 13 8 6 9 5 5 5 5 7 9 26 27 29 39 27 27 50
21 20 7 15 5 5 4 5 5 10 12 11 9 7 6 5 7 3 4 2 4 5 3 3 5 5 5 7 10 3 4 3 3 4 1 4 4 15 13 30 40 50 26 28 58
Wind_Direction_500mb
7 1 342 311 285 268 254 242 226 228 236 234 233 234 237 242 249 251 254 259 237 197 189 189 181 171 161 162 149 140 70 215 239 175 259 187 232 123 139 178 191 199 226 239 269
5 4 354 331 298 273 258 243 236 231 237 235 238 236 239 251 261 264 267 251 213 202 192 194 178 166 157 156 156 118 141 219 215 207 257 330 221 178 186 199 250 246 250 249 248
1 0 358 344 311 273 255 244 237 234 234 234 235 234 235 252 286 270 237 215 196 179 182 189 181 164 135 155 171 165 199 221 261 244 277 292 303 264 249 254 245 253 289 257 242
357 356 354 355 334 284 253 242 235 232 230 232 232 226 222 223 224 288 285 192 177 172 179 181 171 160 134 168 176 168 242 235 280 276 317 285 301 286 240 259 284 288 282 274 250
346 349 351 355 354 324 266 241 233 229 227 228 225 213 207 228 254 299 206 169 174 173 187 176 175 154 163 171 149 176 251 249 262 277 275 269 248 254 277 291 294 279 277 279 269
337 340 346 353 359 350 329 254 234 229 226 222 216 209 210 230 245 229 173 172 179 179 187 188 191 170 140 154 172 196 237 269 278 262 239 211 223 210 62 18 26 34 26 4 333
328 330 339 345 354 353 323 323 253 231 224 218 212 210 233 246 216 181 180 174 181 189 189 184 172 170 161 138 253 253 313 316 279 253 208 188 186 260 5 70 59 51 54 56 52
323 323 326 333 341 344 332 298 275 225 214 208 208 218 248 233 218 200 186 187 185 192 196 187 167 165 168 127 27 24 49 347 310 133 1 169 206 65 41 55 46 38 34 35 34
321 318 317 321 328 336 335 320 252 198 193 193 200 208 254 221 214 194 187 187 177 170 157 176 180 155 128 98 15 3 230 206 324 23 106 70 193 41 36 54 47 36 29 23 17
314 313 310 311 313 320 316 341 143 162 168 178 199 222 230 184 183 181 176 176 154 154 133 145 129 94 53 112 223 192 215 232 255 349 42 14 272 58 39 51 44 33 28 25 21
310 309 303 300 295 289 244 140 137 155 190 201 196 190 142 154 150 169 166 162 142 156 143 88 135 213 188 195 132 128 174 245 231 229 20 227 86 26 41 47 39 33 27 23 20
311 305 299 289 278 257 223 212 220 191 273 234 232 224 172 157 134 171 169 169 151 160 126 48 242 196 151 168 179 151 233 261 278 237 156 167 79 63 57 59 51 39 31 22 19
308 302 296 279 262 234 216 220 227 235 120 237 210 219 216 204 156 176 180 160 125 134 178 166 204 95 137 146 163 206 189 213 224 47 243 135 144 134 74 61 50 41 34 29 23
307 302 293 264 241 217 209 206 209 197 70 212 208 169 165 170 91 168 175 165 75 181 159 231 264 162 181 197 157 250 208 199 152 113 222 196 272 132 113 62 45 32 28 23 20
307 307 293 219 200 180 193 186 182 159 23 133 139 128 136 145 132 49 166 121 152 169 127 245 161 147 164 215 162 220 129 165 152 172 85 250 166 115 193 26 28 26 24 22 21
306 322 314 187 188 184 168 160 147 59 247 93 67 79 93 33 59 103 109 91 81 145 348 247 266 255 215 135 178 138 84 50 54 108 251 213 182 121 28 13 24 24 22 19 17
170 38 29 170 185 177 166 154 67 159 342 9 30 38 82 12 47 50 49 33 49 126 0 322 248 308 47 126 54 94 72 323 317 166 233 273 178 57 82 57 44 25 22 20 18
143 67 35 207 185 176 161 72 186 93 51 330 37 72 82 5 37 39 91 69 27 25 79 37 304 3 333 36 206 173 162 172 238 206 235 23 223 109 93 70 50 43 31 23 19
141 84 21 144 172 171 163 73 101 193 277 358 82 102 63 8 98 88 62 94 42 16 101 42 266 329 25 335 10 150 169 193 175 86 110 152 110 137 94 56 36 26 23 21 17
158 352 15 116 154 157 80 99 104 28 335 219 112 340 132 352 83 80 114 343 104 45 330 152 304 73 296 340 26 60 9 225 15 262 247 244 154 119 20 18 25 22 20 12 10
245 127 13 122 133 83 100 93 115 38 57 26 118 95 65 106 58 61 94 24 4 21 56 30 98 302 5 17 334 348 24 17 94 48 251 269 143 53 45 25 23 25 23 15 9
265 75 9 159 58 44 69 49 59 3 34 41 76 66 75 46 67 91 114 49 357 357 71 29 104 225 83 328 75 66 61 64 152 276 9 269 217 38 56 49 37 31 22 12 7
131 70 28 163 115 98 86 73 57 26 31 32 63 40 36 80 98 61 84 112 35 52 147 144 158 64 165 269 101 62 5 9 94 89 225 148 249 64 31 18 21 15 359 358 358
120 65 36 60 63 104 117 71 100 41 61 55 71 67 75 58 24 114 94 77 9 19 31 171 108 161 192 164 118 139 83 50 104 120 224 230 225 299 348 353 343 343 344 348 356
60 83 57 31 27 73 78 72 100 70 66 41 58 60 79 99 70 83 53 6 51 10 46 81 140 91 185 249 93 97 63 90 178 198 167 246 195 231 278 278 331 332 334 343 354
80 106 76 71 60 53 18 46 103 106 32 30 96 82 45 93 80 150 109 52 42 3 58 3 113 91 328 54 104 96 16 89 90 126 88 143 285 215 330 331 327 334 339 340 351
68 82 96 17 38 72 14 122 95 115 40 64 125 105 96 100 63 343 247 185 57 62 84 74 99 71 279 136 139 40 286 27 124 76 81 230 256 333 322 329 326 323 326 336 341
Wind_Speed_850mb
28 24 19 17 16 16 18 20 20 20 18 17 16 17 18 19 22 31 39 29 16 23 32 30 25 27 29 18 10 8 6 3 8 10 6 1 1 3 2 4 8 11 13 11 7
31 29 25 21 19 19 20 19 20 19 18 17 18 18 17 16 21 36 27 20 26 36 36 40 35 36 16 15 10 7 6 14 7 7 3 4 3 3 4 5 7 15 26 28 23
30 30 29 27 21 20 22 21 21 19 18 19 19 17 14 12 18 12 8 30 26 34 33 34 32 31 11 13 11 9 9 7 7 17 11 4 5 4 5 5 21 22 22 26 29
27 29 31 32 20 15 19 21 21 20 19 19 18 16 13 9 7 4 15 28 35 37 36 34 40 21 10 9 11 4 14 13 9 2 3 4 5 11 21 21 27 28 25 22 24
27 27 29 32 24 12 11 15 17 18 18 18 17 16 12 11 16 12 1 36 40 40 35 39 42 16 11 9 11 7 7 16 28 27 24 23 17 18 34 43 31 35 33 25 23
26 27 28 29 28 14 7 7 13 16 17 17 17 17 15 7 9 5 20 30 39 39 36 33 28 21 12 7 9 8 9 18 20 26 12 9 2 3 8 16 30 33 30 20 18
28 27 26 26 26 16 8 4 6 13 16 16 17 16 17 20 5 11 25 29 31 31 33 31 20 23 14 7 3 3 8 12 4 2 8 12 2 6 29 29 47 50 48 40 31
30 28 25 23 22 17 11 8 8 10 14 15 15 14 13 11 18 17 28 28 26 24 19 28 19 17 5 7 8 5 7 6 3 3 6 11 3 20 38 39 49 50 50 45 42
33 29 27 23 20 18 12 6 4 8 14 15 15 13 9 8 18 25 27 26 26 23 17 25 21 7 7 10 7 9 5 6 12 4 3 5 3 22 42 48 51 52 54 53 46
33 30 26 22 17 15 9 2 5 11 17 15 12 7 13 5 12 28 29 24 21 27 20 12 7 6 6 7 9 10 7 6 7 4 8 5 10 27 46 58 51 53 56 58 60
32 28 25 21 17 12 7 8 9 6 21 12 8 2 7 12 17 29 32 27 28 13 8 3 5 14 16 13 6 11 6 5 5 6 4 11 2 28 36 59 55 55 60 61 61
30 26 23 20 17 13 15 10 9 4 5 22 20 17 7 14 8 31 33 17 12 9 9 9 15 10 11 8 8 4 3 11 10 4 11 9 14 25 40 47 50 51 57 60 70
31 28 22 19 17 17 19 16 11 6 2 4 7 11 21 18 4 30 35 15 7 10 10 11 6 10 12 8 11 8 11 10 16 2 3 8 7 9 25 43 46 50 50 58 62
30 28 22 17 14 20 20 18 11 7 7 5 6 5 10 12 5 18 28 7 4 13 14 9 3 8 7 10 14 6 17 11 8 6 6 4 5 8 20 27 44 49 54 56 62
27 24 18 18 11 24 13 18 12 9 2 3 5 7 12 9 17 5 17 4 12 9 10 7 8 6 5 10 15 12 8 12 8 8 2 4 4 8 11 19 32 43 48 50 52
13 13 6 17 22 21 20 17 14 8 10 4 4 3 8 10 6 8 6 10 6 6 3 10 4 4 8 3 8 9 9 11 7 6 5 14 12 6 8 12 22 34 41 45 51
4 7 3 12 19 24 22 20 7 7 6 6 5 6 11 10 9 9 9 13 6 4 7 9 3 3 1 5 1 6 9 4 3 1 9 2 4 13 16 21 22 27 36 42 48
18 14 7 5 16 24 25 5 7 4 5 4 5 7 9 10 8 8 8 6 11 8 6 4 2 10 15 5 3 7 11 8 9 6 4 4 7 8 22 22 25 28 31 38 46
12 10 19 3 17 24 9 7 3 2 3 4 3 8 4 5 7 11 9 5 10 9 5 2 6 10 5 7 5 4 6 3 1 1 2 9 8 11 13 21 28 32 37 42 45
8 4 25 7 17 22 8 9 5 5 5 3 5 2 6 7 5 9 5 6 6 11 1 3 7 4 11 8 10 7 5 1 3 6 9 3 8 9 10 16 19 28 34 36 41
5 2 18 15 19 11 8 7 8 10 2 8 5 7 6 5 6 6 5 8 10 7 16 4 3 10 6 14 5 11 7 8 1 4 6 5 3 6 7 12 14 21 25 31 40
4 4 14 16 11 7 5 5 6 11 22 12 8 9 6 6 7 6 7 8 14 4 5 3 6 2 7 5 16 9 6 6 4 4 2 3 3 10 12 13 14 16 19 27 36
5 4 17 14 7 5 6 9 13 12 11 10 8 9 7 6 7 5 9 7 20 6 7 4 1 4 1 5 2 12 7 4 3 5 7 5 3 9 17 16 12 16 25 34 41
5 4 21 26 14 11 9 6 7 16 9 13 6 7 7 8 11 7 5 3 10 8 6 2 4 8 10 5 5 6 4 5 7 5 5 7 2 4 10 12 19 25 31 33 38
10 5 5 5 14 11 9 4 6 5 8 16 7 11 6 6 5 6 5 8 9 14 9 7 6 4 5 2 9 4 4 2 7 6 9 6 3 8 10 11 22 22 30 29 41
10 8 16 9 6 8 11 6 7 6 7 5 10 4 8 7 5 5 4 2 2 11 7 8 3 4 5 14 13 8 6 9 5 5 5 5 7 9 26 27 29 39 27 27 50
21 20 7 15 5 5 4 5 5 10 12 11 9 7 6 5 7 3 4 2 4 5 3 3 5 5 5 7 10 3 4 3 3 4 1 4 4 15 13 30 40 50 26 28 58
Wind_Direction_850mb
7 1 342 311 285 268 254 242 226 228 236 234 233 234 237 242 249 251 254 259 237 197 189 189 181 171 161 162 149 140 70 215 239 175 259 187 232 123 139 178 191 199 226 239 269
5 4 354 331 298 273 258 243 236 231 237 235 238 236 239 251 261 264 267 251 213 202 192 194 178 166 157 156 156 118 141 219 215 207 257 330 221 178 186 199 250 246 250 249 248
1 0 358 344 311 273 255 244 237 234 234 234 235 234 235 252 286 270 237 215 196 179 182 189 181 164 135 155 171 165 199 221 261 244 277 292 303 264 249 254 245 253 289 257 242
357 356 354 355 334 284 253 242 235 232 230 232 232 226 222 223 224 288 285 192 177 172 179 181 171 160 134 168 176 168 242 235 280 276 317 285 301 286 240 259 284 288 282 274 250
346 349 351 355 354 324 266 241 233 229 227 228 225 213 207 228 254 299 206 169 174 173 187 176 175 154 163 171 149 176 251 249 262 277 275 269 248 254 277 291 294 279 277 279 269
337 340 346 353 359 350 329 254 234 229 226 222 216 209 210 230 245 229 173 172 179 179 187 188 191 170 140 154 172 196 237 269 278 262 239 211 223 210 62 18 26 34 26 4 333
328 330 339 345 354 353 323 323 253 231 224 218 212 210 233 246 216 181 180 174 181 189 189 184 172 170 161 138 253 253 313 316 279 253 208 188 186 260 5 70 59 51 54 56 52
323 323 326 333 341 344 332 298 275 225 214 208 208 218 248 233 218 200 186 187 185 192 196 187 167 165 168 127 27 24 49 347 310 133 1 169 206 65 41 55 46 38 34 35 34
321 318 317 321 328 336 335 320 252 198 193 193 200 208 254 221 214 194 187 187 177 170 157 176 180 155 128 98 15 3 230 206 324 23 106 70 193 41 36 54 47 36 29 23 17
314 313 310 311 313 320 316 341 143 162 168 178 199 222 230 184 183 181 176 176 154 154 133 145 129 94 53 112 223 192 215 232 255 349 42 14 272 58 39 51 44 33 28 25 21
310 309 303 300 295 289 244 140 137 155 190 201 196 190 142 154 150 169 166 162 142 156 143 88 135 213 188 195 132 128 174 245 231 229 20 227 86 26 41 47 39 33 27 23 20
311 305 299 289 278 257 223 212 220 191 273 234 232 224 172 157 134 171 169 169 151 160 126 48 242 196 151 168 179 151 233 261 278 237 156 167 79 63 57 59 51 39 31 22 19
308 302 296 279 262 234 216 220 227 235 120 237 210 219 216 204 156 176 180 160 125 134 178 166 204 95 137 146 163 206 189 213 224 47 243 135 144 134 74 61 50 41 34 29 23
307 302 293 264 241 217 209 206 209 197 70 212 208 169 165 170 91 168 175 165 75 181 159 231 264 162 181 197 157 250 208 199 152 113 222 196 272 132 113 62 45 32 28 23 20
307 307 293 219 200 180 193 186 182 159 23 133 139 128 136 145 132 49 166 121 152 169 127 245 161 147 164 215 162 220 129 165 152 172 85 250 166 115 193 26 28 26 24 22 21
306 322 314 187 188 184 168 160 147 59 247 93 67 79 93 33 59 103 109 91 81 145 348 247 266 255 215 135 178 138 84 50 54 108 251 213 182 121 28 13 24 24 22 19 17
170 38 29 170 185 177 166 154 67 159 342 9 30 38 82 12 47 50 49 33 49 126 0 322 248 308 47 126 54 94 72 323 317 166 233 273 178 57 82 57 44 25 22 20 18
143 67 35 207 185 176 161 72 186 93 51 330 37 72 82 5 37 39 91 69 27 25 79 37 304 3 333 36 206 173 162 172 238 206 235 23 223 109 93 70 50 43 31 23 19
141 84 21 144 172 171 163 73 101 193 277 358 82 102 63 8 98 88 62 94 42 16 101 42 266 329 25 335 10 150 169 193 175 86 110 152 110 137 94 56 36 26 23 21 17
158 352 15 116 154 157 80 99 104 28 335 219 112 340 132 352 83 80 114 343 104 45 330 152 304 73 296 340 26 60 9 225 15 262 247 244 154 119 20 18 25 22 20 12 10
245 127 13 122 133 83 100 93 115 38 57 26 118 95 65 106 58 61 94 24 4 21 56 30 98 302 5 17 334 348 24 17 94 48 251 269 143 53 45 25 23 25 23 15 9
265 75 9 159 58 44 69 49 59 3 34 41 76 66 75 46 67 91 114 49 357 357 71 29 104 225 83 328 75 66 61 64 152 276 9 269 217 38 56 49 37 31 22 12 7
131 70 28 163 115 98 86 73 57 26 31 32 63 40 36 80 98 61 84 112 35 52 147 144 158 64 165 269 101 62 5 9 94 89 225 148 249 64 31 18 21 15 359 358 358
120 65 36 60 63 104 117 71 100 41 61 55 71 67 75 58 24 114 94 77 9 19 31 171 108 161 192 164 118 139 83 50 104 120 224 230 225 299 348 353 343 343 344 348 356
60 83 57 31 27 73 78 72 100 70 66 41 58 60 79 99 70 83 53 6 51 10 46 81 140 91 185 249 93 97 63 90 178 198 167 246 195 231 278 278 331 332 334 343 354
80 106 76 71 60 53 18 46 103 106 32 30 96 82 45 93 80 150 109 52 42 3 58 3 113 91 328 54 104 96 16 89 90 126 88 143 285 215 330 331 327 334 339 340 351
68 82 96 17 38 72 14 122 95 115 40 64 125 105 96 100 63 343 247 185 57 62 84 74 99 71 279 136 139 40 286 27 124 76 81 230 256 333 322 329 326 323 326 336 341